Weather History for Mullan Pass, ID

Change the Weather History Date:

Wednesday, November 21, 2012

  Actual Average (K3TH) Record (K3TH)
Temperature  
Mean Temperature 26 °F -  
Max Temperature 32 °F 38 °F 48 °F (2001)
Min Temperature 21 °F 30 °F 9 °F (1996)
Degree Days  
Heating Degree Days 38    
Moisture  
Dew Point 25 °F    
Average Humidity 96    
Maximum Humidity 100    
Minimum Humidity 86    
Precipitation  
Precipitation 0.77 in - - ()
Sea Level Pressure  
Sea Level Pressure 29.78 in    
Wind  
Wind Speed 6 mph (SW)    
Max Wind Speed 16 mph    
Max Gust Speed 33 mph    
Visibility 3 miles    
Events Fog , Rain , Snow    
Averages and records for this station are not official NWS values.
T = Trace of Precipitation, MM = Missing Value Source: NWS Daily Summary

Daily Weather History Graph

Daily Weather History Graph

Search for Another Location

Airport:

Trip Planner

Search our weather history database for the weather conditions in past years. The results will help you decide how hot, cold, wet, or windy it might be!

Date:

Astronomy

Nov. 21, 2012 Rise Set
Actual Time 6:56 AM PST 4:00 PM PST
Civil Twilight 6:22 AM PST 4:34 PM PST
Nautical Twilight 5:44 AM PST 5:12 PM PST
Astronomical Twilight 5:08 AM PST 5:48 PM PST
Moon 12:41 PM PST (11/21) No Moon Set
Length of Visible Light 10h 11m
Length of Day
9h 03m
Waxing Gibbous, 63% of the Moon is Illuminated
Nov 21
Waxing Gibbous
Nov 28
Full
Dec 6
Last Quarter
Dec 13
New
Dec 19
First Quarter

Hourly Weather History & Observations

Time (PST) Temp. Windchill Dew Point Humidity Pressure Visibility Wind Dir Wind Speed Gust Speed Precip Events Conditions
12:20 AM 30.2 °F - 30.2 °F 100% 29.71 in 0.2 mi Calm Calm - 0.02 in Fog , Snow Snow
12:44 AM 30.2 °F - 30.2 °F 100% 29.69 in 0.8 mi Calm Calm - 0.02 in   Overcast
12:47 AM 30.2 °F - 30.2 °F 100% 29.69 in 1.8 mi Calm Calm - 0.02 in   Overcast
12:51 AM 30.2 °F - 30.2 °F 100% 29.68 in 3.0 mi Calm Calm - 0.02 in   Overcast
12:53 AM 30.9 °F - 30.9 °F 100% 29.59 in 3.0 mi Calm Calm - 0.02 in   Overcast
12:56 AM 30.2 °F - 30.2 °F 100% 29.69 in 1.8 mi Calm Calm - N/A   Overcast
12:59 AM 30.2 °F 26.7 °F 30.2 °F 100% 29.69 in 0.8 mi SSW 3.5 mph - N/A   Overcast
1:11 AM 30.2 °F - 30.2 °F 100% 29.68 in 1.0 mi Calm Calm - N/A   Overcast
1:19 AM 30.2 °F - 30.2 °F 100% 29.68 in 1.5 mi Calm Calm - N/A   Overcast
1:25 AM 30.2 °F - 30.2 °F 100% 29.68 in 3.0 mi Calm Calm - N/A   Overcast
1:51 AM 30.2 °F - 30.2 °F 100% 29.66 in 9.0 mi Calm Calm - N/A   Overcast
1:53 AM 30.9 °F - 30.9 °F 100% 29.56 in 9.0 mi Calm Calm - N/A   Overcast
2:02 AM 30.2 °F - 30.2 °F 100% 29.65 in 10.0 mi Calm Calm - 0.00 in   Overcast
2:09 AM 32.0 °F - 30.2 °F 93% 29.65 in 2.5 mi Calm Calm - 0.01 in Snow Light Snow
2:19 AM 30.2 °F - 30.2 °F 100% 29.66 in 1.5 mi Calm Calm - 0.03 in Snow Light Snow
2:22 AM 32.0 °F - 32.0 °F 100% 29.65 in 1.2 mi Calm Calm - 0.03 in Snow Light Snow
2:29 AM 32.0 °F - 32.0 °F 100% 29.64 in 1.5 mi Calm Calm - 0.03 in Snow Light Snow
2:32 AM 32.0 °F - 32.0 °F 100% 29.64 in 3.0 mi Calm Calm - 0.03 in Snow Light Snow
2:40 AM 30.2 °F 26.7 °F 30.2 °F 100% 29.64 in 1.5 mi Variable 3.5 mph - 0.04 in Snow Light Snow
2:44 AM 30.2 °F 25.4 °F 30.2 °F 100% 29.63 in 0.8 mi SSE 4.6 mph - 0.04 in Snow Light Snow
2:53 AM 30.9 °F 25.2 °F 30.9 °F 100% 29.53 in 1.2 mi SE 5.8 mph - 0.04 in Snow Light Snow
3:03 AM 30.2 °F 24.3 °F 30.2 °F 100% 29.62 in 0.5 mi Variable 5.8 mph - 0.00 in Fog Light Freezing Fog
3:12 AM 30.2 °F 25.4 °F 30.2 °F 100% 29.62 in 0.8 mi Variable 4.6 mph - 0.00 in   Mist
3:53 AM 32.0 °F - 32.0 °F 100% 29.53 in 0.2 mi Calm Calm - 0.03 in Fog , Snow Snow
4:17 AM 30.2 °F 25.4 °F 30.2 °F 100% 29.63 in 0.8 mi Variable 4.6 mph - 0.07 in Snow Light Snow
4:53 AM 32.0 °F 24.2 °F 32.0 °F 100% 29.53 in 0.5 mi South 9.2 mph 17.3 mph 0.07 in Fog Fog
5:44 AM 30.2 °F 19.8 °F 30.2 °F 100% 29.59 in 0.5 mi South 13.8 mph 20.7 mph N/A Fog Light Freezing Fog
5:53 AM 30.9 °F 22.8 °F 30.9 °F 100% 29.50 in 0.5 mi South 9.2 mph 20.7 mph N/A Fog Light Freezing Fog
6:05 AM 30.2 °F 21.3 °F 30.2 °F 100% 29.61 in 1.5 mi South 10.4 mph 20.7 mph N/A   Mostly Cloudy
6:08 AM 30.2 °F 22.6 °F 30.2 °F 100% 29.61 in 3.0 mi South 8.1 mph 20.7 mph N/A   Mostly Cloudy
6:20 AM 30.2 °F 20.2 °F 30.2 °F 100% 29.62 in 10.0 mi South 12.7 mph 23.0 mph N/A   Mostly Cloudy
6:53 AM 30.0 °F 21.1 °F 30.0 °F 100% 29.53 in 10.0 mi South 10.4 mph 23.0 mph 0.00 in   Mostly Cloudy
7:09 AM 30.2 °F 21.9 °F 30.2 °F 100% 29.62 in 9.0 mi South 9.2 mph 19.6 mph N/A   Mostly Cloudy
7:18 AM 30.2 °F 21.3 °F 30.2 °F 100% 29.63 in 9.0 mi South 10.4 mph 23.0 mph N/A   Overcast
7:35 AM 30.2 °F 21.9 °F 30.2 °F 100% 29.63 in 2.5 mi South 9.2 mph 23.0 mph 0.00 in Snow Light Snow
7:37 AM 30.2 °F 20.2 °F 30.2 °F 100% 29.63 in 1.5 mi SSW 12.7 mph 23.0 mph 0.01 in Snow Light Snow
7:39 AM 30.2 °F 21.9 °F 30.2 °F 100% 29.63 in 0.8 mi SSW 9.2 mph 23.0 mph 0.01 in Snow Light Snow
7:42 AM 30.2 °F 22.6 °F 30.2 °F 100% 29.63 in 0.2 mi SSW 8.1 mph 23.0 mph 0.01 in Fog , Snow Heavy Snow
7:50 AM 30.2 °F 23.4 °F 30.2 °F 100% 29.63 in 0.2 mi Variable 6.9 mph - 0.03 in Fog , Snow Heavy Snow
7:53 AM 30.0 °F 23.2 °F 30.0 °F 100% 29.55 in 0.2 mi Variable 6.9 mph - 0.03 in Fog , Snow Heavy Snow
8:04 AM 30.2 °F 21.3 °F 30.2 °F 100% 29.64 in 0.2 mi SW 10.4 mph 21.9 mph 0.03 in Fog , Snow Heavy Snow
8:53 AM 28.9 °F 22.8 °F 28.9 °F 100% 29.57 in 0.2 mi Variable 5.8 mph 18.4 mph 0.09 in Fog , Snow Light Snow
9:43 AM 28.4 °F 22.2 °F 26.6 °F 93% 29.68 in 1.0 mi Variable 5.8 mph 27.6 mph 0.03 in Snow Light Snow
9:46 AM 28.4 °F 21.2 °F 26.6 °F 93% 29.68 in 3.0 mi Variable 6.9 mph 27.6 mph 0.03 in Snow Light Snow
9:53 AM 27.0 °F 21.6 °F 27.0 °F 100% 29.62 in 10.0 mi Variable 4.6 mph - 0.03 in   Overcast
10:03 AM 26.6 °F 19.1 °F 26.6 °F 100% 29.70 in 8.0 mi WNW 6.9 mph - N/A   Overcast
10:23 AM 26.6 °F 15.7 °F 24.8 °F 93% 29.71 in 8.0 mi WSW 12.7 mph 26.5 mph 0.00 in   Overcast
10:30 AM 26.6 °F 18.2 °F 24.8 °F 93% 29.72 in 2.5 mi SW 8.1 mph 33.4 mph 0.00 in Snow Light Snow
10:33 AM 26.6 °F 17.5 °F 24.8 °F 93% 29.72 in 1.2 mi SW 9.2 mph 33.4 mph 0.00 in Snow Light Snow
10:41 AM 26.6 °F 16.8 °F 24.8 °F 93% 29.72 in 0.5 mi SW 10.4 mph 27.6 mph 0.01 in Fog , Snow Light Snow
10:46 AM 26.6 °F 18.2 °F 24.8 °F 93% 29.73 in 1.8 mi WSW 8.1 mph 27.6 mph 0.01 in Snow Light Snow
10:48 AM 26.6 °F 16.2 °F 24.8 °F 93% 29.73 in 3.0 mi WSW 11.5 mph 24.2 mph 0.01 in Snow Light Snow
10:53 AM 26.1 °F 15.6 °F 25.0 °F 96% 29.80 in 1.0 mi WSW 11.5 mph 23.0 mph 0.02 in Snow Light Snow
11:00 AM 26.6 °F 17.5 °F 24.8 °F 93% 29.72 in 0.5 mi WSW 9.2 mph 23.0 mph 0.02 in Fog , Snow Light Snow
11:09 AM 26.6 °F 15.2 °F 24.8 °F 93% 29.72 in 1.0 mi SW 13.8 mph 28.8 mph 0.02 in Snow Light Snow
11:18 AM 24.8 °F 11.9 °F 24.8 °F 100% 29.73 in 2.0 mi SW 16.1 mph 28.8 mph 0.02 in Snow Light Snow
11:23 AM 24.8 °F 12.4 °F 24.8 °F 100% 29.72 in 1.8 mi SW 15.0 mph 33.4 mph 0.02 in Snow Light Snow
11:30 AM 24.8 °F 11.9 °F 24.8 °F 100% 29.74 in 1.0 mi SW 16.1 mph 32.2 mph 0.02 in Snow Light Snow
11:38 AM 24.8 °F 13.4 °F 24.8 °F 100% 29.74 in 1.8 mi SW 12.7 mph 32.2 mph 0.02 in Snow Light Snow
11:46 AM 24.8 °F 13.4 °F 23.0 °F 93% 29.75 in 3.0 mi WSW 12.7 mph 28.8 mph 0.03 in Snow Light Snow
11:53 AM 25.0 °F 13.1 °F 24.1 °F 96% 29.81 in 1.8 mi WSW 13.8 mph 25.3 mph 0.03 in Snow Light Snow
11:55 AM 24.8 °F 13.4 °F 24.8 °F 100% 29.74 in 1.2 mi SW 12.7 mph 21.9 mph 0.01 in Snow Light Snow
12:07 PM 24.8 °F 12.4 °F 24.8 °F 100% 29.75 in 0.8 mi SW 15.0 mph 25.3 mph 0.01 in Snow Light Snow
12:21 PM 24.8 °F 15.3 °F 24.8 °F 100% 29.75 in 1.0 mi WSW 9.2 mph 20.7 mph 0.02 in Snow Light Snow
12:26 PM 24.8 °F 14.0 °F 24.8 °F 100% 29.75 in 1.5 mi WSW 11.5 mph 26.5 mph 0.02 in Snow Light Snow
12:30 PM 24.8 °F 14.0 °F 24.8 °F 100% 29.75 in 2.0 mi WSW 11.5 mph 26.5 mph 0.02 in Snow Light Snow
12:35 PM 24.8 °F 14.0 °F 24.8 °F 100% 29.75 in 3.0 mi SW 11.5 mph 23.0 mph 0.02 in Snow Light Snow
12:37 PM 24.8 °F 15.3 °F 24.8 °F 100% 29.75 in 1.5 mi WSW 9.2 mph 23.0 mph 0.02 in Snow Light Snow
12:46 PM 24.8 °F 15.3 °F 24.8 °F 100% 29.75 in 0.2 mi SW 9.2 mph 21.9 mph 0.03 in Fog , Snow Snow
12:53 PM 25.0 °F 16.3 °F 24.1 °F 96% 29.84 in 0.2 mi SW 8.1 mph 18.4 mph 0.04 in Fog , Snow Snow
1:06 PM 24.8 °F 16.1 °F 24.8 °F 100% 29.75 in 0.5 mi SW 8.1 mph 18.4 mph 0.01 in Fog , Snow Light Snow
1:13 PM 24.8 °F 16.1 °F 24.8 °F 100% 29.76 in 0.2 mi SW 8.1 mph 18.4 mph 0.01 in Fog , Snow Snow
1:29 PM 24.8 °F 16.9 °F 24.8 °F 100% 29.78 in 0.8 mi Variable 6.9 mph - 0.03 in Snow Light Snow
1:35 PM 24.8 °F 15.3 °F 24.8 °F 100% 29.78 in 0.8 mi West 9.2 mph - 0.03 in Snow Light Snow
1:44 PM 24.8 °F 16.1 °F 24.8 °F 100% 29.79 in 0.8 mi WSW 8.1 mph 19.6 mph 0.04 in Snow Light Snow
1:48 PM 24.8 °F 13.4 °F 23.0 °F 93% 29.79 in 1.5 mi WSW 12.7 mph 26.5 mph 0.04 in Snow Light Snow
1:50 PM 24.8 °F 14.6 °F 23.0 °F 93% 29.79 in 4.0 mi WSW 10.4 mph 26.5 mph 0.04 in Snow Light Snow
1:53 PM 24.1 °F 13.7 °F 23.0 °F 96% 29.88 in 9.0 mi WSW 10.4 mph 26.5 mph 0.04 in   Overcast
2:04 PM 24.8 °F 13.4 °F 21.2 °F 86% 29.79 in 10.0 mi West 12.7 mph 25.3 mph 0.00 in Rain Light Freezing Rain
2:14 PM 24.8 °F 14.6 °F 21.2 °F 86% 29.79 in 10.0 mi WSW 10.4 mph 25.3 mph 0.00 in Rain Light Freezing Rain
2:29 PM 24.8 °F 12.9 °F 23.0 °F 93% 29.80 in 8.0 mi WSW 13.8 mph 27.6 mph 0.00 in Snow Light Snow
2:53 PM 24.1 °F 15.2 °F 21.9 °F 91% 29.91 in 10.0 mi WSW 8.1 mph - 0.00 in   Overcast
3:07 PM 24.8 °F 15.3 °F 21.2 °F 86% 29.82 in 9.0 mi WSW 9.2 mph 19.6 mph 0.00 in Snow Light Snow
3:25 PM 24.8 °F 14.6 °F 21.2 °F 86% 29.83 in 2.0 mi SW 10.4 mph 25.3 mph 0.01 in Snow Light Snow
3:31 PM 24.8 °F 15.3 °F 23.0 °F 93% 29.83 in 5.0 mi WSW 9.2 mph 21.9 mph 0.01 in Snow Light Snow
3:40 PM 24.8 °F 15.3 °F 21.2 °F 86% 29.83 in 9.0 mi WSW 9.2 mph 21.9 mph 0.01 in Rain Light Freezing Rain
3:50 PM 24.8 °F 16.1 °F 21.2 °F 86% 29.84 in 6.0 mi West 8.1 mph 27.6 mph 0.01 in Snow Light Snow
3:53 PM 24.1 °F 14.4 °F 21.9 °F 91% 29.93 in 4.0 mi WSW 9.2 mph 20.7 mph 0.01 in Snow Light Snow
4:03 PM 24.8 °F 15.3 °F 21.2 °F 86% 29.84 in 6.0 mi West 9.2 mph 26.5 mph 0.01 in Snow Light Snow
4:11 PM 24.8 °F 16.1 °F 21.2 °F 86% 29.84 in 4.0 mi SW 8.1 mph 21.9 mph 0.01 in Snow Light Snow
4:23 PM 24.8 °F 15.3 °F 23.0 °F 93% 29.85 in 4.0 mi SW 9.2 mph 17.3 mph 0.01 in Snow Light Snow
4:33 PM 24.8 °F 14.0 °F 21.2 °F 86% 29.85 in 2.5 mi SW 11.5 mph 26.5 mph 0.01 in Snow Light Snow
4:36 PM 24.8 °F 14.0 °F 21.2 °F 86% 29.86 in 4.0 mi WSW 11.5 mph 26.5 mph 0.01 in Snow Light Snow
4:48 PM 24.8 °F 15.3 °F 21.2 °F 86% 29.86 in 9.0 mi WSW 9.2 mph 20.7 mph 0.01 in Rain Light Freezing Rain
4:53 PM 24.1 °F 14.4 °F 21.9 °F 91% 29.94 in 9.0 mi WSW 9.2 mph 20.7 mph 0.01 in Rain Light Freezing Rain
5:00 PM 24.8 °F 14.6 °F 21.2 °F 86% 29.86 in 4.0 mi WSW 10.4 mph 17.3 mph 0.01 in Snow Light Snow
5:11 PM 23.0 °F 12.4 °F 21.2 °F 93% 29.85 in 2.0 mi SW 10.4 mph 24.2 mph 0.01 in Snow Light Snow
5:15 PM 24.8 °F 14.0 °F 21.2 °F 86% 29.85 in 1.2 mi SW 11.5 mph 24.2 mph 0.01 in Snow Light Snow
5:26 PM 24.8 °F 15.3 °F 21.2 °F 86% 29.86 in 0.8 mi SW 9.2 mph 21.9 mph 0.01 in Snow Light Snow
5:43 PM 24.8 °F 17.9 °F 23.0 °F 93% 29.86 in 0.5 mi Variable 5.8 mph 26.5 mph 0.02 in Fog , Snow Snow
5:53 PM 24.1 °F 15.2 °F 23.0 °F 96% 29.95 in 0.5 mi SW 8.1 mph 21.9 mph 0.03 in Fog , Snow Snow
6:01 PM 24.8 °F 15.3 °F 23.0 °F 93% 29.86 in 0.2 mi SW 9.2 mph 25.3 mph 0.01 in Fog , Snow Snow
6:13 PM 24.8 °F 13.4 °F 23.0 °F 93% 29.87 in 1.0 mi WSW 12.7 mph 24.2 mph 0.02 in Snow Light Snow
6:16 PM 24.8 °F 12.9 °F 23.0 °F 93% 29.86 in 2.0 mi SW 13.8 mph 25.3 mph 0.02 in Snow Light Snow
6:20 PM 24.8 °F 14.6 °F 23.0 °F 93% 29.86 in 5.0 mi SW 10.4 mph 27.6 mph 0.02 in Snow Light Snow
6:33 PM 24.8 °F 14.6 °F 23.0 °F 93% 29.86 in 1.8 mi SW 10.4 mph 24.2 mph 0.02 in Snow Light Snow
6:36 PM 24.8 °F 16.1 °F 23.0 °F 93% 29.86 in 1.2 mi SW 8.1 mph 20.7 mph 0.02 in Snow Light Snow
6:46 PM 24.8 °F 16.1 °F 23.0 °F 93% 29.86 in 0.5 mi SSW 8.1 mph 27.6 mph 0.03 in Fog , Snow Snow
6:53 PM 24.1 °F 11.5 °F 23.0 °F 96% 29.95 in 0.2 mi SW 15.0 mph 27.6 mph 0.03 in Fog , Snow Snow
7:09 PM 24.8 °F 14.0 °F 23.0 °F 93% 29.86 in 0.2 mi SSW 11.5 mph 25.3 mph 0.02 in Fog , Snow Snow
7:17 PM 24.8 °F 15.3 °F 23.0 °F 93% 29.87 in 0.5 mi SW 9.2 mph 23.0 mph 0.03 in Fog , Snow Snow
7:33 PM 24.8 °F 12.4 °F 23.0 °F 93% 29.86 in 1.0 mi WSW 15.0 mph 29.9 mph 0.04 in Snow Light Snow
7:38 PM 24.8 °F 14.0 °F 23.0 °F 93% 29.86 in 0.8 mi WSW 11.5 mph 29.9 mph 0.05 in Snow Light Snow
7:47 PM 23.0 °F 13.9 °F 23.0 °F 100% 29.88 in 0.2 mi West 8.1 mph 24.2 mph 0.06 in Fog , Snow Heavy Snow
7:53 PM 23.0 °F 14.7 °F 23.0 °F 100% 29.97 in 0.2 mi Variable 6.9 mph 24.2 mph 0.08 in Fog , Snow Heavy Snow
8:17 PM 24.8 °F 15.3 °F 23.0 °F 93% 29.89 in 0.8 mi West 9.2 mph 17.3 mph 0.05 in Snow Light Snow
8:26 PM 23.0 °F 11.1 °F 21.2 °F 93% 29.89 in 1.5 mi WNW 12.7 mph 32.2 mph 0.06 in Snow Light Snow
8:29 PM 23.0 °F 12.4 °F 21.2 °F 93% 29.88 in 3.0 mi West 10.4 mph 32.2 mph 0.06 in Snow Light Snow
8:50 PM 23.0 °F 11.1 °F 21.2 °F 93% 29.89 in 1.8 mi WNW 12.7 mph 33.4 mph 0.06 in Snow Light Snow
8:53 PM 23.0 °F 13.9 °F 21.0 °F 92% 30.00 in 1.0 mi WNW 8.1 mph 29.9 mph 0.06 in Snow Light Snow
8:55 PM 23.0 °F 13.1 °F 21.2 °F 93% 29.90 in 0.8 mi WNW 9.2 mph 29.9 mph 0.00 in Snow Light Snow
9:02 PM 23.0 °F 13.1 °F 21.2 °F 93% 29.91 in 0.2 mi WNW 9.2 mph 20.7 mph 0.02 in Fog , Snow Snow
9:13 PM 23.0 °F 14.7 °F 21.2 °F 93% 29.92 in 0.5 mi Variable 6.9 mph 19.6 mph 0.05 in Fog , Snow Snow
9:28 PM 21.2 °F 10.9 °F 21.2 °F 100% 29.93 in 1.2 mi West 9.2 mph 21.9 mph 0.06 in Snow Light Snow
9:35 PM 21.2 °F 13.6 °F 21.2 °F 100% 29.94 in 1.2 mi Variable 5.8 mph 23.0 mph 0.06 in Snow Light Snow
9:43 PM 21.2 °F 11.7 °F 21.2 °F 100% 29.93 in 1.0 mi WSW 8.1 mph 23.0 mph 0.06 in Snow Light Snow
9:53 PM 21.9 °F 11.7 °F 21.0 °F 96% 30.06 in 1.0 mi West 9.2 mph 24.2 mph 0.07 in Snow Light Snow
10:02 PM 21.2 °F 11.7 °F 19.4 °F 93% 29.94 in 1.5 mi West 8.1 mph 24.2 mph 0.00 in Snow Light Snow
10:06 PM 21.2 °F 11.7 °F 21.2 °F 100% 29.94 in 2.5 mi WSW 8.1 mph 20.7 mph 0.00 in Snow Light Snow
10:11 PM 21.2 °F 11.7 °F 21.2 °F 100% 29.95 in 1.2 mi West 8.1 mph 20.7 mph 0.00 in Snow Light Snow
10:37 PM 21.2 °F 13.6 °F 19.4 °F 93% 29.96 in 1.8 mi Variable 5.8 mph 26.5 mph 0.02 in Snow Light Snow
10:45 PM 21.2 °F 11.7 °F 19.4 °F 93% 29.97 in 0.8 mi West 8.1 mph - 0.03 in Snow Light Snow
10:53 PM 21.9 °F 13.4 °F 19.9 °F 92% 30.11 in 1.0 mi Variable 6.9 mph 24.2 mph 0.04 in Snow Light Snow
11:08 PM 21.2 °F 12.6 °F 19.4 °F 93% 29.98 in 2.0 mi Variable 6.9 mph - 0.00 in Snow Light Snow
11:27 PM 21.2 °F 12.6 °F 19.4 °F 93% 30.00 in 4.0 mi Variable 6.9 mph 21.9 mph 0.00 in Snow Light Snow
11:46 PM 21.2 °F 8.9 °F 19.4 °F 93% 30.01 in 9.0 mi West 12.7 mph 28.8 mph 0.00 in Rain Light Freezing Rain
11:53 PM 21.0 °F 11.4 °F 19.0 °F 92% 30.16 in 10.0 mi West 8.1 mph 28.8 mph 0.00 in Rain Light Freezing Rain